Simultaneous Nadir Overpasses (SNOs) Predictions

Prediction of SNOs between TERRA and METOP-C Satellite Orbit:

Table of predicted SNOs for the next 14.0 days since TLE Epoch: 1/21/2023
Index Date (TERRA) Time (TERRA) Lat,Lon (TERRA) SZA (TERRA ) Date (METOP-C) Time (METOP-C) Lat,Lon (METOP-C) SZA (METOP-C ) Distance(km) Time Diff (sec)
1 01/21/2023 10:49:39 80.95, 53.35 102.21 01/21/2023 10:49:21 80.95, 53.33 102.20 0.23 18
2 01/21/2023 11:39:00 -80.99,-138.50 77.73 01/21/2023 11:39:59 -80.99,-138.50 77.71 0.27 59
3 01/24/2023 03:01:09 80.95, 170.44 101.58 01/24/2023 03:01:02 80.94, 170.26 101.55 3.24 7
4 01/24/2023 03:50:30 -80.99, -21.37 78.36 01/24/2023 03:51:40 -80.99, -21.51 78.35 2.52 70
5 01/26/2023 18:23:18 -80.91, 119.31 79.18 01/26/2023 18:22:04 -80.92, 119.42 79.19 2.14 74
6 01/26/2023 19:12:39 80.96, -72.42 100.91 01/26/2023 19:12:43 80.95, -72.55 100.90 2.25 4
7 01/29/2023 10:34:47 -80.92,-123.47 79.87 01/29/2023 10:33:45 -80.92,-123.42 79.88 1.03 62
8 01/29/2023 11:24:08 80.96, 44.75 100.21 01/29/2023 11:24:23 80.97, 44.91 100.23 2.75 15
9 02/01/2023 02:46:15 -80.93, -6.21 80.59 02/01/2023 02:45:26 -80.92, -6.35 80.63 2.70 49
10 02/01/2023 03:35:36 80.97, 161.97 99.48 02/01/2023 03:36:04 80.96, 161.90 99.48 1.52 28
11 02/03/2023 18:57:42 -80.92, 110.75 81.40 02/03/2023 18:57:06 -80.91, 110.61 81.42 2.40 36



Historial Predications of SNOs between TERRA and METOP-C
